OPS 5798 DEB, 901

Orbit data source: Space-Track

OPS 5798 DEB, 901 is space debris in LEO originally from a launch on Tue, 06 Oct 1964 UTC launched from the Air Force Western Test Range (AFWTR). Debris objects in space refer to the collection of defunct objects orbiting the Earth. Examples of debris include non-operational satellites, rocket bodies, and fragments generated from explosions, collisions, or faulty payload assembly.

Loading next visibility...
Identifier
901, 1964-063D
Orbit
LEO
Last TLE update
16 hours ago
Origin
Manufacturer
NAFI?
Mission
Spacecraft
Bus & Motor
Unknown
Mass
~20 kg wet, ~20 kg dry
Launch date (UTC)
1964-10-06 (61 years ago)
Launch vehicle
Unknown
Launch site
Air Force Western Test Range (AFWTR)
Object type
Payload
Rocket body
Debris
Shape & HBR
Unknown
Radar Cross Section
1.300 m², Large (>1 m²)

Expand to show TLE details & history

TLE from 16 hours ago
0 OPS 5798 DEB
1 00901U 64063D   25189.67055586  .00000112  00000-0  14926-3 0  9995
2 00901  90.2311  68.3208 0020878  46.8681   7.0430 13.55068610999931
Epoch: 2025-07-08T16:05Z
TLE epoch observation values (Epoch: 2025-07-08T16:05:36.026Z)
Latitude
54.03451°
Longitude
-100.25836°
Altitude
1,047.227 km
Speed
7.341 km/s
True Right ascension
04h 32m 00s
True Declination
53° 52' 38"
Sunlit
Object was in daylight at epoch
Visualization orbit readout
Latitude
85.65379°
Longitude
-102.95224°
Altitude
1,055.715 km
Speed
7.337 km/s
Apparent Right ascension
07h 59m 55s
Apparent Declination
32° 32' 24"
Sunlit
Object is in daylight
Visualization observer readout
Local Sidereal Time
20:21:31
Azimuth
4.768° NNE
Elevation
-17.372°
Doppler factor
1
Orbital elements
Apogee altitude
1,066.221 km
Perigee altitude
1,035.201 km
Semi-major axis
7,428.848 km
Eccentricity
0.00209
Inclination
90.2311°
RAAN
68.3208°
Arg. of periapsis
46.8681°
True anomaly
Unknown
Mean anomaly
7.043°
Eccentric anomaly
Unknown
Mean motion
3.3897 °/min
Orbital period
106.2 mins
BSTAR
0.00014926
Loading maneuver chart data...
Loading SW <> Apogee altitude chart data...
Loading historical data...
Loading historical data...
Loading historical data...
Loading historical data...
Loading historical data...
Loading historical data...
Loading historical data...

OPS 5798 DEB Visibility forecast

Observer location: undefined°, undefined°

Span
Click to sort rows by Start time (UTC) header in descending order
Start Az.
Max El. time (UTC)
Max El. Az.
Max El.
End time (UTC)
End Az.
9 mins2025-07-09 14:59:54.472Z121.36° SE2025-07-09 15:04:54.472Z68.673° E21.145°2025-07-09 15:08:54.472Z27.837° NE
11 mins2025-07-09 16:44:54.472Z197.086° SSW2025-07-09 16:49:54.472Z265.108° W39.227°2025-07-09 16:55:54.472Z347.24° N
11 mins2025-07-10 03:52:54.472Z14.363° NNE2025-07-10 03:57:54.472Z100.847° ESE40.842°2025-07-10 04:03:54.472Z169.05° S
7 mins2025-07-10 05:39:54.472Z322.326° NNW2025-07-10 05:42:54.472Z289.562° WNW19.974°2025-07-10 05:46:54.472Z246.913° WSW
|